User: anonymous   Login
Location: Springfield
(37.2150°N, 93.2980°W)
Time: 05:23:47
(UTC-06:00)
Language:

Iridium 62 - Orbit

View from above orbital plane
View from above orbital plane
View from above satellite
View from above satellite

Ground track
Ground track

The orbit data is extracted from the following two-line orbital elements,

1 25285U 98021A   18023.82164859 +.00000168 +00000-0 +53024-4 0  9992
2 25285 086.3989 131.7378 0002156 094.1654 265.9788 14.34216555036651
Epoch (UTC): 23 January 2018 19:43:10
Eccentricity: 0.0002156
inclination: 86.3989°
perigee height: 776 km
apogee height: 779 km
right ascension of ascending node: 131.7378°
argument of perigee: 94.1654°
revolutions per day: 14.34216555
mean anomaly at epoch: 265.9788°
orbit number at epoch: 3665

The dashed part of the orbit path shows where the satellite is in the earth's shadow,  

DLR